Date,TemperatureHighF,TemperatureAvgF,TemperatureLowF,DewpointHighF,DewpointAvgF,DewpointLowF,HumidityHigh,HumidityAvg,HumidityLow,PressureMaxIn,PressureMinIn,WindSpeedMaxMPH,WindSpeedAvgMPH,GustSpeedMaxMPH,PrecipitationSumIn
2013-1-1,20,12,3,8,1,-7,70,59,44,30.27,30.06,6,3,9,0.00
2013-1-2,35,24,13,26,15,3,76,67,53,30.21,30.00,7,4,9,0.00
2013-1-3,30,23,17,23,13,5,75,64,44,30.39,30.18,8,3,13,0.00
2013-1-4,34,22,15,13,10,6,79,60,41,30.27,30.09,8,4,10,0.00
2013-1-5,31,23,12,19,11,2,91,62,46,30.18,29.94,12,4,17,0.00
2013-1-6,35,24,12,17,12,5,75,61,44,30.27,30.09,8,3,12,0.00
2013-1-7,38,31,21,21,18,14,77,57,48,30.09,29.91,11,4,15,0.00
2013-1-8,39,31,21,25,22,15,86,70,52,30.09,29.80,10,4,14,0.00
2013-1-9,48,36,25,26,22,18,78,59,38,30.42,30.09,10,3,13,0.00
2013-1-10,39,36,32,36,26,16,98,69,41,30.30,29.65,12,4,20,0.40
2013-1-11,51,40,26,48,36,10,98,87,52,29.74,29.38,13,4,20,0.00
2013-1-12,25,18,10,12,1,-5,57,47,38,30.12,29.74,13,5,23,0.00
2013-1-13,23,14,7,0,-4,-8,50,44,34,30.33,30.12,8,3,13,0.08
2013-1-14,29,17,8,6,0,-8,62,46,34,30.42,30.27,9,3,12,0.00
2013-1-15,35,24,12,13,8,-1,63,51,35,30.33,29.97,10,4,14,0.00
2013-1-16,53,37,23,27,20,10,73,52,31,30.18,29.85,11,5,15,0.00
2013-1-17,32,28,23,31,26,19,98,93,74,30.44,30.18,6,1,10,0.00
2013-1-18,51,40,29,29,24,20,95,54,36,30.27,29.85,15,6,21,0.00
2013-1-19,54,46,33,24,22,20,63,41,30,30.03,29.83,11,5,16,0.00
2013-1-20,52,27,13,22,7,-2,59,44,31,30.36,30.03,6,3,9,0.00
2013-1-21,14,10,5,5,-3,-8,67,54,52,30.42,30.30,10,3,14,0.00
2013-1-22,21,14,10,6,0,-4,61,54,50,30.36,30.18,6,2,8,0.00
2013-1-23,32,19,9,12,3,-7,65,51,40,30.48,30.12,7,3,13,0.00
2013-1-24,19,10,2,-1,-8,-14,47,43,37,30.53,30.12,9,4,14,0.00
2013-1-25,50,30,14,21,10,-2,65,45,28,30.18,30.09,8,2,10,0.00
2013-1-26,48,32,17,20,14,4,67,49,31,30.21,29.97,10,5,15,0.00
2013-1-27,42,38,36,41,32,16,98,81,42,29.97,29.65,9,4,14,0.20
2013-1-28,44,38,34,44,38,33,98,98,98,29.85,29.53,6,2,9,0.00
2013-1-29,40,34,31,40,31,26,98,88,75,29.71,29.53,9,4,18,0.04
2013-1-30,31,22,14,30,13,2,98,71,45,29.91,29.62,11,5,18,0.00
2013-1-31,14,7,-1,2,-6,-13,57,56,56,30.36,29.91,12,5,20,0.00